Location: Newark
(48.0000°N, 67.0000°E)
Time: 12:56:58
(UTC+00:00)

Vanguard 2 - Pass Details

Date: 22 February 2020
Orbit: 552 x 2938 km, 32.9° (Epoch: 04 April)

Event Time Altitude Azimuth Distance (km) Brightness Sun altitude
Exits shadow 00:38:53 19° 239° (WSW) 3,953 10.6 -18.9°
Maximum altitude 00:48:22 44° 181° (S) 3,296 10.6 -17.3°
Drops below altitude 10° 01:04:20 10° 118° (ESE) 5,767 13.0 -14.6°
Sets 01:09:09 0° 113° (ESE) 6,760 13.7 -13.8°
